TimeCEST,TemperatureF,Dew PointF,Humidity,Sea Level PressureIn,VisibilityMPH,Wind Direction,Wind SpeedMPH,Gust SpeedMPH,PrecipitationIn,Events,Conditions,WindDirDegrees,DateUTC
12:00 AM,39.2,28.4,65,29.71,-9999.0,East,8.1,-,N/A,,Clear,90,2013-04-08 22:00:00
1:00 AM,37.4,28.4,70,29.71,-9999.0,ENE,8.1,-,N/A,,Clear,70,2013-04-08 23:00:00
2:00 AM,37.4,28.4,70,29.71,-9999.0,ENE,8.1,-,N/A,,Clear,70,2013-04-09 00:00:00
3:00 AM,35.6,28.4,75,29.71,-9999.0,East,3.5,-,N/A,,Clear,80,2013-04-09 01:00:00
4:00 AM,33.8,28.4,81,29.68,-9999.0,ESE,1.2,-,N/A,,Clear,120,2013-04-09 02:00:00
5:00 AM,33.8,30.2,87,29.68,-9999.0,South,1.2,-,N/A,,Clear,180,2013-04-09 03:00:00
6:00 AM,32.0,30.2,93,29.68,-9999.0,Calm,Calm,-,N/A,,Clear,0,2013-04-09 04:00:00
7:00 AM,33.8,30.2,87,29.68,-9999.0,SE,1.2,-,N/A,,Clear,130,2013-04-09 05:00:00
8:00 AM,35.6,32.0,87,29.71,5.0,Calm,Calm,-,N/A,Rain,Light Rain Showers,0,2013-04-09 06:00:00
9:00 AM,39.2,35.6,87,29.71,5.0,Variable,2.3,-,N/A,Rain,Light Rain,0,2013-04-09 07:00:00
10:00 AM,41.0,35.6,81,29.71,5.0,SSE,3.5,-,N/A,,Unknown,150,2013-04-09 08:00:00
11:00 AM,44.6,35.6,71,29.71,-9999.0,SSW,3.5,-,N/A,,Clear,210,2013-04-09 09:00:00
12:00 PM,46.4,35.6,66,29.71,6.2,South,4.6,-,N/A,,Mostly Cloudy,190,2013-04-09 10:00:00
1:00 PM,46.4,35.6,66,29.71,6.2,Variable,4.6,-,N/A,,Mostly Cloudy,0,2013-04-09 11:00:00
2:00 PM,48.2,35.6,62,29.71,6.2,Variable,3.5,-,N/A,,Mostly Cloudy,0,2013-04-09 12:00:00
3:00 PM,50.0,37.4,62,29.68,6.2,West,3.5,-,N/A,,Mostly Cloudy,280,2013-04-09 13:00:00
4:00 PM,48.2,35.6,62,29.68,6.2,ENE,5.8,-,N/A,,Mostly Cloudy,70,2013-04-09 14:00:00
5:00 PM,50.0,37.4,62,29.65,-9999.0,ENE,6.9,-,N/A,,Clear,70,2013-04-09 15:00:00
6:00 PM,51.8,37.4,58,29.65,6.2,ENE,9.2,-,N/A,,Scattered Clouds,70,2013-04-09 16:00:00
7:00 PM,48.2,37.4,66,29.65,-9999.0,ENE,6.9,-,N/A,,Clear,70,2013-04-09 17:00:00
8:00 PM,46.4,37.4,71,29.65,-9999.0,East,5.8,-,N/A,,Clear,80,2013-04-09 18:00:00
9:00 PM,44.6,39.2,81,29.68,-9999.0,East,5.8,-,N/A,,Clear,90,2013-04-09 19:00:00
10:00 PM,44.6,37.4,76,29.68,-9999.0,SE,5.8,-,N/A,,Clear,130,2013-04-09 20:00:00
11:00 PM,42.8,39.2,87,29.65,-9999.0,Variable,2.3,-,N/A,,Clear,0,2013-04-09 21:00:00